Weather History for PHOG - September, 2013

Change the Weather History Date:

Monday, September 9, 2013

  Actual Average Record
Temperature  
Mean Temperature 83 °F 79 °F  
Max Temperature 91 °F 88 °F 93 °F (1979)
Min Temperature 74 °F 71 °F 62 °F (1955)
Degree Days  
Heating Degree Days 0 0  
Month to date heating degree days 0 0  
Since 1 July heating degree days 0 0  
Cooling Degree Days 18 14  
Month to date cooling degree days 137 128  
Year to date cooling degree days 2924 2670  
Growing Degree Days 32 (Base 50)    
Moisture  
Dew Point 69 °F    
Average Humidity 66    
Maximum Humidity 82    
Minimum Humidity 50    
Precipitation  
Precipitation 0.00 in 0.01 in 0.10 in (1990)
Month to date precipitation 0.09 0.10  
Year to date precipitation 8.75 10.80  
Snow  
Snow 0.00 in - - ()
Month to date snowfall 0.0  
Since 1 July snowfall 0.0  
Since 1 September snowfall 0.0  
Snow Depth 0.00 in    
Sea Level Pressure  
Sea Level Pressure 30.05 in    
Wind  
Wind Speed 14 mph (ENE)    
Max Wind Speed 25 mph    
Max Gust Speed 33 mph    
Visibility 10 miles    
Events Rain    
T = Trace of Precipitation, MM = Missing Value Source: NWS Daily Summary

Daily Weather History Graph

Daily Weather History Graph

Search for Another Location

Airport or City:

Trip Planner

Search our weather history database for the weather conditions in past years. The results will help you decide how hot, cold, wet, or windy it might be!

Date:

Astronomy

Sep. 09, 2013 Rise Set
Actual Time 6:11 AM HST 6:33 PM HST
Civil Twilight 5:49 AM HST 6:56 PM HST
Nautical Twilight 5:23 AM HST 7:22 PM HST
Astronomical Twilight 4:57 AM HST 7:48 PM HST
Moon 10:05 AM HST (9/9) 9:40 PM HST (9/9)
Length of Visible Light 13h 06m
Length of Day
12h 22m
Waxing Crescent, 21% of the Moon is Illuminated
Sep 9
Waxing Crescent
Sep 12
First Quarter
Sep 19
Full
Sep 26
Last Quarter
Oct 4
New

Hourly Weather History & Observations

Time (HST) Temp. Heat Index Dew Point Humidity Pressure Visibility Wind Dir Wind Speed Gust Speed Precip Events Conditions
12:54 AM 75.9 °F - 66.9 °F 74% 30.07 in 10.0 mi NE 8.1 mph - N/A   Mostly Cloudy
1:54 AM 75.9 °F - 66.0 °F 71% 30.05 in 10.0 mi ENE 8.1 mph 19.6 mph N/A   Clear
2:54 AM 75.0 °F - 66.0 °F 73% 30.04 in 10.0 mi ENE 9.2 mph - N/A   Clear
3:54 AM 75.9 °F - 66.9 °F 74% 30.03 in 10.0 mi ENE 10.4 mph - N/A   Clear
4:54 AM 75.0 °F - 68.0 °F 79% 30.03 in 10.0 mi NE 11.5 mph - N/A   Clear
5:54 AM 75.9 °F - 66.9 °F 74% 30.05 in 10.0 mi NE 12.7 mph - N/A   Scattered Clouds
6:54 AM 77.0 °F - 69.1 °F 76% 30.05 in 10.0 mi NE 12.7 mph - N/A   Partly Cloudy
7:54 AM 80.1 °F 82.9 °F 69.1 °F 69% 30.07 in 10.0 mi NE 13.8 mph - N/A   Partly Cloudy
8:54 AM 82.9 °F 87.0 °F 70.0 °F 65% 30.06 in 10.0 mi NE 18.4 mph 25.3 mph N/A   Partly Cloudy
9:54 AM 86.0 °F 89.4 °F 68.0 °F 55% 30.06 in 10.0 mi NE 19.6 mph 26.5 mph N/A   Partly Cloudy
10:54 AM 88.0 °F 90.7 °F 66.9 °F 49% 30.05 in 10.0 mi NE 19.6 mph 25.3 mph N/A   Partly Cloudy
11:54 AM 88.0 °F 90.7 °F 66.9 °F 49% 30.04 in 10.0 mi ENE 17.3 mph 29.9 mph N/A   Partly Cloudy
12:54 PM 88.0 °F 92.1 °F 69.1 °F 53% 30.01 in 10.0 mi NE 21.9 mph 27.6 mph N/A   Partly Cloudy
1:54 PM 88.0 °F 92.1 °F 69.1 °F 53% 29.99 in 10.0 mi ENE 19.6 mph 29.9 mph N/A   Partly Cloudy
2:54 PM 88.0 °F 92.1 °F 69.1 °F 53% 29.99 in 10.0 mi ENE 20.7 mph 29.9 mph N/A   Partly Cloudy
3:54 PM 86.0 °F 90.7 °F 70.0 °F 59% 29.98 in 10.0 mi NE 20.7 mph 33.4 mph N/A   Partly Cloudy
4:54 PM 84.9 °F 88.8 °F 69.1 °F 59% 29.99 in 10.0 mi ENE 19.6 mph 32.2 mph N/A   Partly Cloudy
5:54 PM 81.0 °F 84.4 °F 70.0 °F 69% 30.02 in 10.0 mi ENE 20.7 mph 29.9 mph N/A   Partly Cloudy
6:54 PM 79.0 °F - 70.0 °F 74% 30.05 in 10.0 mi ENE 15.0 mph 23.0 mph N/A   Partly Cloudy
7:54 PM 77.0 °F - 70.0 °F 79% 30.08 in 10.0 mi ENE 12.7 mph - N/A   Clear
8:54 PM 77.0 °F - 68.0 °F 74% 30.10 in 10.0 mi ENE 16.1 mph 23.0 mph 0.00 in Rain Light Rain
9:54 PM 73.9 °F - 72.0 °F 93% 30.11 in 10.0 mi ENE 8.1 mph - 0.00 in   Partly Cloudy
10:54 PM 73.9 °F - 70.0 °F 87% 30.11 in 10.0 mi NE 9.2 mph - N/A   Clear
11:54 PM 73.0 °F - 70.0 °F 90% 30.10 in 10.0 mi NE 6.9 mph - N/A   Clear